EW5297 Weather Reports


time (UTC)temp
F
wind
direction
speed
knots
gust
knots
rain 1hr
in
rain 24hr
in
rain mn
in
humidity
%
barometer
mb
20260509080327 56 349 0.0 0.0 0.00 0.00 0.00 87
20260509074845 57 349 0.9 0.9 0.00 0.00 0.00 85
20260509073321 57 349 0.0 0.9 0.00 0.00 0.00 84
20260509071819 58 349 0.9 0.9 0.00 0.00 0.00 83
20260509070317 59 349 0.9 0.9 0.00 0.00 0.00 81
20260509064814 61 349 0.9 0.9 0.00 0.00 0.00 78
20260509063335 63 349 0.9 1.7 0.00 0.00 0.00 74
20260509061833 65 161 0.0 1.7 0.00 0.00 0.00 71
20260509060312 67 161 0.0 0.0 0.00 0.00 0.00 68
20260509054830 67 161 0.0 1.7 0.00 0.00 0.00 63
20260509053326 68 165 0.0 1.7 0.00 0.00 0.00 62
20260509051828 68 165 0.0 2.6 0.00 0.00 0.00 61
20260509050346 68 145 1.7 3.5 0.00 0.00 0.00 60
20260509044823 69 159 0.9 2.6 0.00 0.00 0.00 59
20260509043325 69 146 1.7 3.5 0.00 0.00 0.00 58
20260509041823 69 149 0.9 1.7 0.00 0.00 0.00 59
20260509040325 69 148 1.7 4.3 0.00 0.00 0.00 59
20260509034843 70 153 0.0 1.7 0.00 0.00 0.00 58
20260509033319 70 189 1.7 3.5 0.00 0.00 0.00 55
20260509031821 70 141 1.7 3.5 0.00 0.00 0.00 58
20260509030320 70 148 0.9 4.3 0.00 0.00 0.00 55
20260509024822 69 133 1.7 6.1 0.00 0.00 0.00 55
20260509023322 69 141 0.9 4.3 0.00 0.00 0.00 55
20260509021819 69 136 1.7 7.0 0.00 0.00 0.00 53
20260509020322 69 132 0.9 4.3 0.00 0.00 0.00 53 1020.1
20260509014821 69 36 1.7 3.5 0.00 0.00 0.00 54
20260509013341 68 138 0.9 7.8 0.00 0.00 0.00 57
20260509011843 67 132 1.7 7.0 0.00 0.00 0.00 56
20260509010320 67 144 2.6 7.8 0.00 0.00 0.00 57 792.8
20260509004843 67 113 0.0 7.0 0.00 0.00 0.00 60 695.2
20260509003320 67 153 1.7 3.5 0.00 0.00 0.00 60 397.9
20260509001817 65 9 0.0 7.0 0.00 0.00 0.00 62 563.0
20260509000318 64 134 0.0 2.6 0.00 0.00 0.00 67
20260508234813 63 141 0.9 8.7 0.00 0.00 0.00 68
20260508233315 60 140 0.9 3.5 0.00 0.00 0.00 80
20260508231814 58 88 0.0 1.7 0.00 0.00 0.00 90
20260508230330 56 53 0.0 1.7 0.00 0.00 0.00 92
20260508224811 54 57 0.9 1.7 0.00 0.00 0.00 93
20260508223331 52 327 0.0 1.7 0.00 0.00 0.00 93
20260508221850 51 323 0.0 0.9 0.00 0.00 0.00 93
20260508220314 50 344 0.9 1.7 0.00 0.00 0.00 93
20260508214816 48 329 0.9 2.6 0.00 0.00 0.00 93
20260508213319 47 327 0.9 1.7 0.00 0.00 0.00 93
20260508211817 46 318 0.9 1.7 0.00 0.00 0.00 93
20260508204848 46 327 0.9 2.6 0.00 0.00 0.00 93
20260508203324 45 329 1.7 2.6 0.00 0.00 0.00 93
20260508201840 45 329 0.9 2.6 0.00 0.00 0.00 93
20260508200320 45 326 0.9 1.7 0.00 0.00 0.00 93
20260508194838 45 326 0.0 1.7 0.00 0.00 0.00 93
20260508193319 45 327 0.0 0.0 0.00 0.00 0.00 92
20260508191838 45 327 0.0 1.7 0.00 0.00 0.00 92
20260508190314 45 327 0.9 1.7 0.00 0.00 0.00 92
20260508183320 46 333 0.0 0.0 0.00 0.00 0.00 93
20260508181838 46 333 0.0 0.0 0.00 0.00 0.00 92
20260508180318 46 333 0.0 2.6 0.00 0.00 0.00 93
20260508174816 45 319 1.7 1.7 0.00 0.00 0.00 92
20260508173313 45 317 0.9 1.7 0.00 0.00 0.00 92
20260508171816 45 325 0.9 1.7 0.00 0.00 0.00 92
20260508170313 45 325 0.0 2.6 0.00 0.00 0.00 92
20260508164815 45 322 0.0 1.7 0.00 0.00 0.00 92
20260508163312 45 322 0.9 1.7 0.00 0.00 0.00 92
20260508161828 46 319 0.0 1.7 0.00 0.00 0.00 92
20260508160330 45 330 0.9 1.7 0.00 0.00 0.00 92
20260508154826 45 315 0.0 1.7 0.00 0.00 0.00 92
20260508153322 45 322 0.9 1.7 0.00 0.00 0.00 92
20260508151843 45 322 0.0 1.7 0.00 0.00 0.00 92
20260508150321 45 326 0.9 1.7 0.00 0.00 0.00 92
20260508144823 45 326 0.9 1.7 0.00 0.00 0.00 92
20260508143322 46 319 0.9 1.7 0.00 0.00 0.00 92
20260508141823 46 311 0.9 1.7 0.00 0.00 0.00 92
20260508140346 46 325 0.0 1.7 0.00 0.00 0.00 91
20260508134823 46 340 0.0 1.7 0.00 0.00 0.00 91
20260508133321 46 340 0.0 1.7 0.00 0.00 0.00 91
20260508131822 46 340 0.9 2.6 0.00 0.00 0.00 91
20260508130340 46 331 0.0 1.7 0.00 0.00 0.00 91
20260508124819 46 331 0.9 1.7 0.00 0.00 0.00 91
20260508123314 46 331 0.0 1.7 0.00 0.00 0.00 91
20260508121811 46 331 0.0 0.0 0.00 0.00 0.00 91
20260508120314 47 331 0.0 0.0 0.00 0.00 0.00 91
20260508114829 47 331 0.0 0.0 0.00 0.00 0.00 91
20260508113346 47 331 0.0 0.0 0.00 0.00 0.00 91
20260508111827 47 331 0.0 0.0 0.00 0.00 0.00 90
20260508110322 47 331 0.0 0.0 0.00 0.00 0.00 90
20260508104824 48 331 0.0 0.0 0.00 0.00 0.00 90
20260508103321 48 331 0.0 0.0 0.00 0.00 0.00 90
20260508101820 48 331 0.0 0.0 0.00 0.00 0.00 90
20260508100322 48 331 0.0 0.0 0.00 0.00 0.00 90
20260508094840 48 331 0.0 0.0 0.00 0.00 0.00 89
20260508093338 49 331 0.0 0.0 0.00 0.00 0.00 89
20260508091816 49 331 0.9 1.7 0.00 0.00 0.00 89
20260508090335 49 331 0.9 1.7 0.00 0.00 0.00 88
20260508084816 50 331 0.0 0.0 0.00 0.00 0.00 88
20260508083334 50 331 0.0 0.0 0.00 0.00 0.00 88
20260508081811 50 331 0.0 0.0 0.00 0.00 0.00 87